This is the latest recevied weather packets stored in our database for station/object KD2ZLA. If no packets are shown the sender has not sent any weather packets the latest 10 day(s).
| Time | Temp. | Humidity | Pressure | Rain* | Wind** | Luminosity | Snow |
|---|---|---|---|---|---|---|---|
| 1777769587 | 5.56° C | 76% | 1012.7 hPa | 0 mm | - | 0 W/m² | - |
| 1777769282 | 5.56° C | 76% | 1012.6 hPa | 0 mm | - | 0 W/m² | - |
| 1777768981 | 5.56° C | 76% | 1012.7 hPa | 0 mm | - | 0 W/m² | - |
| 1777768678 | 5.56° C | 76% | 1012.7 hPa | 0 mm | - | 0 W/m² | - |
| 1777768375 | 5.56° C | 75% | 1012.8 hPa | 0 mm | - | 0 W/m² | - |
| 1777768072 | 5.56° C | 74% | 1012.6 hPa | 0 mm | - | 0 W/m² | - |
| 1777767768 | 5.56° C | 74% | 1012.5 hPa | 0 mm | - | 0 W/m² | - |
| 1777767465 | 5.56° C | 74% | 1012.4 hPa | 0 mm | - | 0 W/m² | - |
| 1777767161 | 5.56° C | 73% | 1012.4 hPa | 0 mm | - | 1 W/m² | - |
| 1777766859 | 5.56° C | 73% | 1012.4 hPa | 0 mm | - | 1 W/m² | - |
| 1777766556 | 5.56° C | 73% | 1012.5 hPa | 0 mm | - | 2 W/m² | - |
| 1777766253 | 6.11° C | 73% | 1012.5 hPa | 0 mm | - | 3 W/m² | - |
| 1777765951 | 6.11° C | 72% | 1012.4 hPa | 0 mm | - | 4 W/m² | - |
| 1777765647 | 6.11° C | 71% | 1012.3 hPa | 0 mm | - | 6 W/m² | - |
| 1777765345 | 6.11° C | 70% | 1012.5 hPa | 0 mm | - | 8 W/m² | - |
| 1777765040 | 6.11° C | 70% | 1012.6 hPa | 0 mm | - | 9 W/m² | - |
| 1777764737 | 6.67° C | 68% | 1012.5 hPa | 0 mm | - | 11 W/m² | - |
| 1777764433 | 6.67° C | 68% | 1012.5 hPa | 0 mm | - | 15 W/m² | - |
| 1777764131 | 6.67° C | 67% | 1012.5 hPa | 0 mm | - | 18 W/m² | - |
| 1777763827 | 6.67° C | 67% | 1012.4 hPa | 0 mm | - | 22 W/m² | - |
| 1777763525 | 6.67° C | 67% | 1012.3 hPa | 0 mm | - | 25 W/m² | - |
| 1777763223 | 6.67° C | 67% | 1012.3 hPa | 0 mm | - | 30 W/m² | - |
| 1777762921 | 6.67° C | 67% | 1012.4 hPa | 0 mm | - | 37 W/m² | - |
| 1777762616 | 6.67° C | 67% | 1012.1 hPa | 0 mm | - | 46 W/m² | - |
| 1777762314 | 6.67° C | 67% | 1012.2 hPa | 0 mm | - | 53 W/m² | - |
* Rain latest hour (hover to see other rain measurements)
** Current wind speed in m/s (hover to see current wind gust speed)